• In Uzbekistan
  • List of Countries
  • For 7 days
  • Water Temperature
  • Satellite Maps
  • Weather Map
  • Weather Widgets
  • user-avatar
    Login

    Hourly Weather Salawaj

    Today, 19 October, Thursday

    Time Temperature Precipitation Wind Pressure Humidity
    00:00 +24°C° 0 mm 1 mps 742 mmHg 93%
    01:00 +24°C° 0 mm 1 mps 742 mmHg 95%
    02:00 +24°C° 0 mm 1 mps 742 mmHg 96%
    03:00 +24°C° 0 mm 1 mps 742 mmHg 96%
    04:00 +24°C° 0 mm 1 mps 741 mmHg 96%
    05:00 +24°C° 0 mm 1 mps 742 mmHg 93%
    06:00 +25°C° 0 mm 1 mps 742 mmHg 90%
    07:00 +26°C° 0 mm 1 mps 742 mmHg 84%
    08:00 +29°C° 0 mm 1 mps 742 mmHg 75%
    09:00 +31°C° 0 mm 1 mps 742 mmHg 66%
    10:00 +34°C° 0 mm 2 mps 743 mmHg 57%
    11:00 +34°C° 0.1 mm 2 mps 742 mmHg 57%
    12:00 +35°C° 0.1 mm 2 mps 742 mmHg 56%
    13:00 +35°C° 0 mm 3 mps 741 mmHg 56%
    14:00 +34°C° 0.2 mm 3 mps 741 mmHg 59%
    15:00 +32°C° 0.2 mm 2 mps 740 mmHg 63%
    16:00 +32°C° 0.2 mm 2 mps 740 mmHg 66%
    17:00 +30°C° 0 mm 2 mps 740 mmHg 73%
    18:00 +28°C° 0 mm 1 mps 741 mmHg 79%
    19:00 +26°C° 0 mm 1 mps 741 mmHg 86%
    20:00 +26°C° 0 mm 1 mps 742 mmHg 89%
    21:00 +25°C° 0 mm 1 mps 742 mmHg 91%
    22:00 +25°C° 0 mm 1 mps 743 mmHg 94%
    23:00 +24°C° 0 mm 1 mps 743 mmHg 94%

    Tomorrow, 20 October, Friday

    Time Temperature Precipitation Wind Pressure Humidity
    00:00 +24°C° 0 mm 1 mps 743 mmHg 95%
    01:00 +24°C° 0 mm 1 mps 743 mmHg 96%
    02:00 +24°C° 0 mm 1 mps 743 mmHg 96%
    03:00 +24°C° 0 mm 1 mps 742 mmHg 96%
    04:00 +24°C° 0 mm 1 mps 742 mmHg 96%
    05:00 +24°C° 0 mm 1 mps 743 mmHg 93%
    06:00 +23°C° 0 mm 0 mps 743 mmHg 90%
    07:00 +24°C° 0 mm 0 mps 743 mmHg 88%
    08:00 +28°C° 0 mm 1 mps 743 mmHg 77%
    09:00 +31°C° 0 mm 1 mps 744 mmHg 66%
    10:00 +33°C° 0 mm 1 mps 744 mmHg 56%
    11:00 +34°C° 0 mm 1 mps 743 mmHg 54%
    12:00 +34°C° 0 mm 1 mps 742 mmHg 51%
    13:00 +35°C° 0 mm 1 mps 742 mmHg 49%
    14:00 +34°C° 0 mm 1 mps 741 mmHg 51%
    15:00 +34°C° 0 mm 1 mps 740 mmHg 53%
    16:00 +33°C° 0 mm 1 mps 740 mmHg 55%
    17:00 +31°C° 0 mm 1 mps 740 mmHg 64%
    18:00 +29°C° 0 mm 1 mps 741 mmHg 73%
    19:00 +27°C° 0 mm 1 mps 741 mmHg 82%
    20:00 +26°C° 0 mm 1 mps 742 mmHg 85%
    21:00 +26°C° 0 mm 1 mps 742 mmHg 88%
    22:00 +25°C° 0 mm 1 mps 743 mmHg 91%
    23:00 +25°C° 0 mm 1 mps 743 mmHg 92%

    Day after tomorrow, 21 October, Saturday

    Time Temperature Precipitation Wind Pressure Humidity
    00:00 +24°C° 0 mm 1 mps 742 mmHg 93%
    01:00 +24°C° 0 mm 1 mps 742 mmHg 94%
    02:00 +24°C° 0 mm 1 mps 742 mmHg 94%
    03:00 +23°C° 0 mm 1 mps 742 mmHg 95%
    04:00 +23°C° 0 mm 1 mps 741 mmHg 95%
    05:00 +24°C° 0 mm 1 mps 742 mmHg 91%
    06:00 +23°C° 0 mm 0 mps 742 mmHg 88%
    07:00 +23°C° 0 mm 0 mps 743 mmHg 84%
    08:00 +26°C° 0 mm 0 mps 743 mmHg 72%
    09:00 +31°C° 0 mm 1 mps 743 mmHg 59%
    10:00 +34°C° 0 mm 1 mps 743 mmHg 47%
    11:00 +35°C° 0 mm 1 mps 742 mmHg 44%
    12:00 +35°C° 0 mm 1 mps 741 mmHg 41%
    13:00 +36°C° 0 mm 1 mps 740 mmHg 38%
    14:00 +36°C° 0 mm 1 mps 740 mmHg 41%
    15:00 +35°C° 0 mm 1 mps 739 mmHg 45%
    16:00 +34°C° 0 mm 1 mps 739 mmHg 48%
    17:00 +32°C° 0 mm 1 mps 739 mmHg 58%
    18:00 +29°C° 0 mm 1 mps 740 mmHg 67%
    19:00 +27°C° 0 mm 1 mps 740 mmHg 77%
    20:00 +27°C° 0 mm 1 mps 741 mmHg 80%
    21:00 +26°C° 0 mm 1 mps 741 mmHg 84%
    22:00 +25°C° 0 mm 1 mps 742 mmHg 87%
    23:00 +25°C° 0 mm 1 mps 741 mmHg 88%

    22 October, Sunday

    Time Temperature Precipitation Wind Pressure Humidity
    00:00 +25°C° 0 mm 1 mps 741 mmHg 89%
    01:00 +24°C° 0 mm 1 mps 741 mmHg 91%
    02:00 +24°C° 0 mm 1 mps 741 mmHg 91%
    03:00 +24°C° 0 mm 1 mps 741 mmHg 92%
    04:00 +24°C° 0 mm 1 mps 740 mmHg 92%
    05:00 +24°C° 0 mm 1 mps 741 mmHg 89%
    06:00 +25°C° 0 mm 1 mps 741 mmHg 87%
    07:00 +24°C° 0 mm 0 mps 742 mmHg 84%
    08:00 +27°C° 0 mm 0 mps 742 mmHg 73%
    09:00 +29°C° 0 mm 0 mps 742 mmHg 62%
    10:00 +32°C° 0 mm 0 mps 743 mmHg 51%
    11:00 +33°C° 0 mm 0 mps 742 mmHg 48%
    12:00 +36°C° 0 mm 1 mps 741 mmHg 45%
    13:00 +37°C° 0 mm 1 mps 740 mmHg 42%
    14:00 +36°C° 0 mm 1 mps 739 mmHg 45%
    15:00 +35°C° 0 mm 1 mps 739 mmHg 48%
    16:00 +34°C° 0 mm 1 mps 739 mmHg 50%
    17:00 +32°C° 0 mm 1 mps 739 mmHg 60%
    18:00 +30°C° 0 mm 1 mps 740 mmHg 69%
    19:00 +27°C° 0 mm 1 mps 740 mmHg 79%
    20:00 +27°C° 0 mm 1 mps 741 mmHg 82%
    21:00 +26°C° 0 mm 1 mps 741 mmHg 85%
    22:00 +26°C° 0 mm 1 mps 742 mmHg 89%
    23:00 +25°C° 0 mm 1 mps 742 mmHg 90%

    23 October, Monday

    Time Temperature Precipitation Wind Pressure Humidity
    00:00 +25°C° 0 mm 1 mps 742 mmHg 91%
    01:00 +25°C° 0 mm 1 mps 741 mmHg 92%
    02:00 +24°C° 0 mm 1 mps 741 mmHg 93%
    03:00 +24°C° 0 mm 1 mps 741 mmHg 93%
    04:00 +24°C° 0 mm 1 mps 741 mmHg 94%
    05:00 +25°C° 0 mm 1 mps 742 mmHg 91%
    06:00 +23°C° 0 mm 0 mps 743 mmHg 89%
    07:00 +24°C° 0 mm 0 mps 743 mmHg 86%
    08:00 +26°C° 0 mm 0 mps 743 mmHg 76%
    09:00 +29°C° 0 mm 0 mps 744 mmHg 67%
    10:00 +33°C° 0 mm 1 mps 744 mmHg 57%
    11:00 +34°C° 0.1 mm 1 mps 743 mmHg 55%
    12:00 +34°C° 0.1 mm 1 mps 742 mmHg 53%
    13:00 +35°C° 0.1 mm 1 mps 741 mmHg 51%
    14:00 +34°C° 0.1 mm 1 mps 741 mmHg 53%
    15:00 +33°C° 0.1 mm 1 mps 741 mmHg 55%
    16:00 +33°C° 0.1 mm 1 mps 741 mmHg 57%
    17:00 +31°C° 0 mm 1 mps 741 mmHg 65%
    18:00 +29°C° 0 mm 1 mps 742 mmHg 73%
    19:00 +27°C° 0 mm 1 mps 743 mmHg 81%
    20:00 +26°C° 0 mm 1 mps 743 mmHg 83%
    21:00 +26°C° 0 mm 1 mps 744 mmHg 86%
    22:00 +25°C° 0 mm 1 mps 744 mmHg 88%
    23:00 +25°C° 0 mm 1 mps 744 mmHg 89%

    24 October, Tuesday

    Time Temperature Precipitation Wind Pressure Humidity
    00:00 +25°C° 0 mm 1 mps 744 mmHg 90%
    01:00 +25°C° 0 mm 1 mps 744 mmHg 91%
    02:00 +24°C° 0 mm 1 mps 744 mmHg 92%
    03:00 +24°C° 0 mm 1 mps 744 mmHg 92%
    04:00 +24°C° 0 mm 1 mps 744 mmHg 92%
    05:00 +25°C° 0 mm 1 mps 745 mmHg 90%
    06:00 +25°C° 0 mm 1 mps 745 mmHg 87%
    07:00 +26°C° 0 mm 1 mps 746 mmHg 85%
    08:00 +28°C° 0 mm 1 mps 746 mmHg 74%
    09:00 +30°C° 0 mm 1 mps 746 mmHg 64%
    10:00 +32°C° 0 mm 1 mps 746 mmHg 53%
    11:00 +33°C° 0 mm 1 mps 745 mmHg 51%
    12:00 +35°C° 0 mm 2 mps 744 mmHg 48%
    13:00 +36°C° 0 mm 2 mps 743 mmHg 45%
    14:00 +35°C° 0 mm 2 mps 743 mmHg 48%
    15:00 +34°C° 0 mm 2 mps 743 mmHg 51%
    16:00 +34°C° 0 mm 2 mps 743 mmHg 54%
    17:00 +31°C° 0 mm 2 mps 743 mmHg 61%
    18:00 +28°C° 0 mm 2 mps 744 mmHg 69%
    19:00 +26°C° 0 mm 1 mps 744 mmHg 76%
    20:00 +26°C° 0 mm 1 mps 745 mmHg 79%
    21:00 +25°C° 0 mm 1 mps 745 mmHg 82%
    22:00 +24°C° 0 mm 1 mps 745 mmHg 85%
    23:00 +24°C° 0 mm 1 mps 745 mmHg 87%
    Show more